Tekamah, NE

3:48 PM CST on January 16, 2018 (GMT -0600)
Tekamah

Weather History for KTQE - May, 2014

Change the Weather History Date:

Saturday, May 17, 2014

  Actual Average Record
Temperature  
Mean Temperature 50 °F -  
Max Temperature 68 °F 77 °F 95 °F (2012)
Min Temperature 34 °F 52 °F 34 °F (2014)
Degree Days  
Heating Degree Days 15    
Moisture  
Dew Point 29 °F    
Average Humidity 47    
Maximum Humidity 79    
Minimum Humidity 20    
Precipitation  
Precipitation 0.00 in - - ()
Sea Level Pressure  
Sea Level Pressure 30.12 in    
Wind  
Wind Speed 5 mph (SSW)    
Max Wind Speed 14 mph    
Max Gust Speed 18 mph    
Visibility 10 miles    
Events      
Averages and records for this station are not official NWS values.
T = Trace of Precipitation, MM = Missing Value Source: NWS Daily Summary

Daily Weather History Graph

Daily Weather History Graph

Search for Another Location

Airport or City:

Trip Planner

Search our weather history database for the weather conditions in past years. The results will help you decide how hot, cold, wet, or windy it might be!

Date:

Astronomy

May. 17, 2014 Rise Set
Actual Time 6:02 AM CDT 8:39 PM CDT
Civil Twilight 5:30 AM CDT 9:11 PM CDT
Nautical Twilight 4:51 AM CDT 9:52 PM CDT
Astronomical Twilight 4:05 AM CDT 10:37 PM CDT
Moon 11:41 PM CDT (5/17) 8:47 AM CDT (5/17)
Length of Visible Light 15h 40m
Length of Day
14h 36m
Waning Gibbous, 89% of the Moon is Illuminated
May 17
Waning Gibbous
May 21
Last Quarter
May 28
New
Jun 5
First Quarter
Jun 12
Full

Hourly Weather History & Observations

Time (CDT) Temp. Windchill Dew Point Humidity Pressure Visibility Wind Dir Wind Speed Gust Speed Precip Events Conditions
12:54 AM 43.0 °F 39.5 °F 30.9 °F 62% 30.13 in 10.0 mi West 5.8 mph - N/A   Clear
1:54 AM 39.9 °F 36.7 °F 30.0 °F 68% 30.13 in 10.0 mi WNW 4.6 mph - N/A   Clear
2:54 AM 37.0 °F 31.0 °F 30.0 °F 76% 30.13 in 10.0 mi North 8.1 mph - N/A   Clear
3:54 AM 36.0 °F 33.3 °F 28.0 °F 73% 30.13 in 10.0 mi WSW 3.5 mph - N/A   Clear
4:54 AM 35.1 °F 30.1 °F 28.0 °F 76% 30.13 in 10.0 mi SW 5.8 mph - N/A   Clear
5:54 AM 34.0 °F - 28.0 °F 79% 30.14 in 10.0 mi Calm Calm - N/A   Clear
6:54 AM 37.0 °F - 30.9 °F 79% 30.15 in 10.0 mi Calm Calm - N/A   Clear
7:54 AM 43.0 °F - 34.0 °F 71% 30.16 in 10.0 mi Calm Calm - N/A   Clear
8:54 AM 50.0 °F - 36.0 °F 59% 30.15 in 10.0 mi South 3.5 mph - N/A   Clear
9:54 AM 57.0 °F - 35.1 °F 44% 30.15 in 10.0 mi East 3.5 mph - N/A   Clear
10:54 AM 60.1 °F - 28.9 °F 31% 30.14 in 10.0 mi Variable 3.5 mph - N/A   Clear
11:54 AM 62.1 °F - 27.0 °F 26% 30.14 in 10.0 mi Variable 3.5 mph - N/A   Clear
12:54 PM 63.0 °F - 27.0 °F 26% 30.14 in 10.0 mi SSW 5.8 mph - N/A   Clear
1:54 PM 64.9 °F - 28.0 °F 25% 30.12 in 10.0 mi SW 11.5 mph - N/A   Clear
2:54 PM 64.9 °F - 27.0 °F 24% 30.11 in 10.0 mi Calm Calm - N/A   Partly Cloudy
3:54 PM 66.0 °F - 24.1 °F 20% 30.10 in 10.0 mi West 4.6 mph - N/A   Scattered Clouds
4:54 PM 66.9 °F - 27.0 °F 22% 30.09 in 10.0 mi SW 13.8 mph 18.4 mph N/A   Partly Cloudy
5:54 PM 66.9 °F - 26.1 °F 21% 30.08 in 10.0 mi SSW 9.2 mph - N/A   Clear
6:54 PM 66.0 °F - 25.0 °F 21% 30.08 in 10.0 mi SSE 6.9 mph - N/A   Clear
7:54 PM 64.0 °F - 28.0 °F 26% 30.07 in 10.0 mi SSW 4.6 mph - N/A   Clear
8:54 PM 57.9 °F - 28.9 °F 33% 30.08 in 10.0 mi SE 6.9 mph - N/A   Clear
9:54 PM 52.0 °F - 30.0 °F 43% 30.09 in 10.0 mi SW 6.9 mph - N/A   Clear
10:54 PM 48.9 °F - 34.0 °F 56% 30.11 in 10.0 mi South 5.8 mph - N/A   Clear
11:54 PM 46.9 °F - 33.1 °F 59% 30.11 in 10.0 mi South 4.6 mph - N/A   Clear